Temp
-8 -8 -8 -8 -9 -9 -9 -9 -9 -9 -9 -9 -9 -9 -8 -8 -8 -8 -9 -9 -9 -9 -10 -10 -10 -10 -11 -10 -10 -10 -10 -11 -10 -10 -10 -10 -10 -10 -10 -10 -10 -10 -10
-8 -8 -8 -9 -9 -9 -9 -9 -9 -9 -9 -9 -8 -8 -9 -9 -9 -9 -9 -10 -10 -10 -11 -11 -10 -10 -11 -11 -11 -11 -11 -11 -11 -10 -10 -10 -10 -10 -10 -11 -10 -10 -10
-8 -8 -9 -9 -9 -9 -9 -9 -9 -9 -9 -9 -9 -9 -8 -9 -9 -9 -10 -10 -10 -10 -10 -11 -11 -11 -11 -11 -11 -11 -11 -11 -11 -10 -10 -11 -10 -10 -10 -10 -10 -10 -10
-8 -8 -9 -9 -9 -9 -9 -9 -9 -9 -9 -9 -9 -9 -8 -9 -10 -10 -10 -10 -11 -11 -12 -12 -12 -12 -12 -11 -11 -11 -11 -11 -11 -11 -11 -11 -11 -11 -10 -10 -10 -10 -10
-8 -8 -8 -9 -9 -9 -9 -10 -10 -10 -10 -9 -9 -9 -9 -9 -10 -10 -10 -11 -11 -12 -12 -12 -12 -12 -13 -12 -12 -12 -12 -11 -11 -11 -11 -11 -11 -11 -11 -11 -10 -10 -10
-8 -8 -9 -9 -9 -9 -9 -9 -10 -10 -10 -9 -9 -9 -9 -9 -10 -11 -11 -11 -12 -11 -12 -12 -12 -13 -12 -12 -13 -12 -12 -11 -11 -11 -11 -11 -11 -11 -11 -11 -11 -11 -11
-8 -8 -9 -9 -9 -9 -9 -10 -10 -10 -10 -10 -9 -9 -9 -10 -11 -11 -11 -11 -11 -12 -12 -12 -12 -12 -12 -12 -12 -12 -12 -12 -11 -11 -11 -12 -11 -11 -11 -11 -11 -11 -11
-8 -8 -9 -9 -9 -9 -9 -10 -10 -10 -10 -10 -10 -10 -10 -10 -10 -11 -11 -11 -11 -12 -12 -12 -12 -12 -12 -12 -12 -12 -12 -12 -12 -12 -12 -12 -11 -12 -11 -11 -11 -11 -11
-8 -8 -9 -9 -9 -9 -10 -10 -10 -10 -10 -10 -10 -10 -10 -10 -10 -11 -11 -11 -12 -12 -12 -12 -12 -12 -12 -12 -12 -12 -13 -12 -12 -11 -12 -12 -12 -11 -12 -12 -12 -12 -12
-8 -8 -8 -9 -9 -10 -10 -10 -10 -10 -10 -10 -10 -10 -10 -10 -10 -12 -12 -12 -12 -12 -12 -12 -12 -12 -11 -12 -12 -13 -12 -12 -12 -12 -12 -12 -12 -12 -12 -12 -12 -12 -12
-8 -8 -8 -9 -9 -10 -10 -11 -10 -10 -10 -10 -11 -11 -10 -10 -11 -11 -11 -11 -12 -12 -12 -12 -12 -12 -12 -12 -12 -12 -13 -13 -12 -11 -12 -12 -12 -12 -12 -12 -12 -12 -12
-9 -9 -9 -9 -9 -10 -10 -11 -11 -11 -11 -11 -11 -11 -11 -11 -11 -11 -12 -12 -12 -12 -12 -12 -12 -12 -12 -12 -12 -12 -12 -13 -12 -11 -13 -13 -12 -12 -12 -12 -12 -12 -12
-9 -9 -9 -9 -10 -10 -10 -11 -11 -11 -11 -11 -11 -11 -11 -11 -11 -11 -12 -12 -12 -12 -12 -12 -12 -12 -12 -11 -12 -12 -12 -13 -12 -12 -13 -13 -12 -13 -13 -12 -13 -13 -13
-10 -10 -10 -10 -10 -10 -10 -11 -11 -11 -11 -11 -11 -11 -11 -11 -11 -12 -12 -12 -12 -12 -12 -12 -12 -12 -12 -12 -12 -12 -12 -13 -12 -12 -13 -13 -13 -12 -12 -13 -13 -13 -13
-10 -10 -10 -10 -10 -10 -11 -11 -11 -11 -11 -11 -11 -11 -12 -12 -12 -12 -12 -12 -12 -12 -12 -12 -12 -12 -12 -12 -12 -12 -12 -12 -12 -13 -13 -13 -13 -13 -13 -13 -13 -13 -14
-11 -11 -10 -11 -10 -11 -11 -12 -12 -12 -12 -11 -12 -11 -12 -12 -12 -12 -12 -12 -12 -12 -12 -12 -12 -12 -12 -12 -12 -12 -12 -12 -12 -13 -12 -13 -13 -13 -13 -13 -13 -14 -13
-11 -11 -11 -11 -11 -11 -12 -12 -12 -12 -12 -12 -12 -12 -12 -12 -12 -12 -12 -12 -12 -12 -12 -12 -12 -12 -12 -11 -12 -12 -12 -12 -12 -13 -12 -12 -12 -12 -13 -13 -13 -13 -12
-11 -11 -11 -11 -11 -11 -12 -12 -12 -12 -12 -12 -12 -12 -12 -12 -12 -12 -12 -12 -12 -12 -12 -12 -12 -12 -12 -12 -12 -12 -12 -12 -12 -12 -12 -12 -13 -12 -12 -13 -14 -13 -13
-11 -11 -10 -11 -11 -11 -12 -12 -12 -12 -12 -12 -12 -12 -12 -13 -12 -12 -12 -12 -12 -12 -12 -13 -12 -12 -12 -12 -12 -12 -12 -12 -13 -12 -12 -12 -12 -12 -12 -13 -13 -13 -12
-11 -11 -11 -11 -11 -11 -12 -12 -12 -12 -12 -13 -13 -12 -12 -13 -12 -12 -12 -13 -13 -12 -13 -13 -12 -13 -12 -12 -12 -12 -12 -12 -12 -12 -12 -12 -12 -12 -13 -13 -13 -13 -13
-11 -11 -11 -12 -12 -12 -13 -12 -12 -12 -13 -13 -13 -13 -12 -13 -13 -12 -12 -13 -12 -12 -13 -13 -12 -12 -12 -12 -12 -12 -12 -12 -12 -13 -12 -12 -13 -13 -13 -13 -13 -13 -13
-11 -11 -11 -12 -12 -12 -13 -12 -12 -13 -13 -13 -13 -13 -12 -13 -13 -12 -12 -12 -12 -12 -13 -14 -12 -12 -12 -12 -12 -12 -11 -12 -13 -13 -13 -13 -13 -13 -13 -13 -12 -12 -13
-10 -11 -11 -11 -12 -12 -13 -13 -13 -13 -13 -13 -13 -13 -13 -13 -13 -13 -13 -12 -13 -12 -13 -13 -13 -12 -12 -12 -12 -12 -12 -12 -13 -13 -13 -13 -13 -13 -13 -13 -13 -13 -13
-11 -11 -11 -11 -11 -12 -13 -13 -13 -14 -13 -13 -13 -13 -13 -13 -13 -13 -13 -12 -12 -13 -13 -12 -13 -13 -12 -12 -12 -12 -12 -12 -13 -13 -12 -12 -13 -13 -13 -13 -13 -13 -13
-11 -11 -11 -11 -11 -12 -13 -13 -14 -14 -13 -14 -13 -13 -13 -13 -13 -13 -13 -12 -12 -12 -12 -13 -13 -13 -13 -13 -13 -13 -13 -13 -13 -13 -13 -13 -13 -13 -13 -13 -13 -13 -13
-11 -11 -11 -11 -11 -12 -13 -14 -14 -14 -13 -14 -14 -13 -13 -13 -13 -13 -13 -13 -12 -12 -12 -13 -13 -13 -13 -14 -13 -13 -13 -13 -13 -13 -13 -14 -14 -14 -13 -13 -13 -13 -13
Height
5839 5837 5836 5834 5833 5832 5831 5831 5829 5828 5826 5825 5825 5824 5822 5821 5819 5818 5819 5818 5818 5818 5819 5819 5820 5821 5823 5825 5827 5829 5831 5833 5835 5837 5838 5839 5840 5841 5843 5844 5845 5847 5848
5836 5835 5834 5832 5831 5830 5829 5827 5826 5825 5824 5822 5821 5820 5819 5817 5816 5816 5815 5814 5814 5815 5815 5816 5817 5818 5819 5822 5824 5826 5828 5830 5832 5834 5836 5837 5838 5839 5841 5843 5844 5845 5847
5834 5832 5831 5830 5829 5827 5826 5824 5823 5822 5820 5819 5818 5816 5815 5814 5812 5811 5812 5813 5813 5813 5813 5812 5813 5815 5817 5819 5820 5822 5825 5827 5829 5832 5833 5834 5836 5837 5839 5840 5842 5843 5844
5830 5829 5828 5827 5825 5824 5823 5821 5820 5819 5817 5815 5814 5813 5811 5811 5809 5808 5809 5809 5809 5808 5808 5809 5809 5810 5813 5815 5816 5818 5821 5824 5827 5828 5829 5831 5833 5835 5837 5838 5840 5842 5842
5827 5826 5824 5824 5822 5821 5820 5818 5817 5816 5815 5813 5811 5809 5807 5806 5805 5807 5807 5806 5806 5805 5807 5807 5807 5808 5809 5812 5814 5815 5818 5820 5823 5825 5826 5828 5830 5832 5834 5836 5838 5839 5841
5823 5823 5821 5820 5819 5818 5816 5815 5814 5813 5811 5809 5807 5805 5804 5802 5803 5803 5801 5802 5801 5801 5802 5803 5804 5804 5807 5809 5810 5812 5815 5817 5819 5821 5823 5826 5827 5829 5832 5834 5836 5837 5839
5819 5819 5818 5817 5816 5814 5813 5812 5811 5809 5807 5806 5804 5802 5800 5801 5800 5800 5799 5798 5799 5799 5798 5798 5801 5802 5804 5804 5806 5808 5810 5813 5815 5818 5820 5824 5825 5828 5830 5832 5834 5836 5837
5816 5816 5815 5814 5812 5811 5810 5808 5807 5805 5804 5802 5801 5799 5798 5798 5797 5795 5796 5796 5795 5795 5793 5790 5795 5799 5800 5801 5803 5804 5807 5808 5810 5813 5818 5820 5822 5825 5828 5830 5832 5834 5835
5811 5811 5811 5810 5809 5808 5806 5805 5804 5802 5800 5799 5798 5796 5795 5793 5793 5792 5793 5792 5791 5792 5791 5790 5792 5793 5792 5796 5798 5800 5803 5805 5805 5808 5815 5816 5819 5823 5826 5828 5830 5831 5832
5807 5807 5806 5807 5806 5805 5803 5802 5800 5798 5797 5795 5793 5793 5791 5789 5788 5789 5789 5788 5788 5788 5788 5788 5788 5789 5788 5790 5793 5795 5800 5801 5803 5803 5812 5813 5817 5820 5822 5825 5827 5829 5830
5803 5802 5802 5801 5802 5801 5800 5799 5797 5795 5793 5791 5790 5788 5787 5786 5784 5785 5786 5785 5784 5784 5784 5782 5783 5784 5784 5786 5787 5789 5792 5795 5799 5804 5807 5809 5812 5816 5819 5821 5824 5826 5828
5798 5798 5797 5796 5797 5797 5796 5794 5793 5791 5789 5788 5786 5785 5783 5782 5780 5779 5780 5780 5780 5780 5778 5778 5778 5779 5779 5779 5779 5783 5785 5793 5793 5802 5803 5806 5809 5813 5815 5818 5821 5823 5824
5793 5793 5792 5791 5791 5792 5791 5789 5788 5787 5785 5784 5782 5781 5779 5778 5777 5776 5775 5775 5775 5776 5774 5774 5774 5774 5775 5775 5774 5778 5784 5788 5791 5796 5800 5804 5807 5809 5812 5815 5818 5819 5820
5788 5788 5786 5785 5785 5786 5785 5784 5783 5782 5781 5779 5778 5777 5775 5773 5772 5772 5771 5770 5770 5771 5770 5770 5770 5769 5770 5771 5772 5776 5780 5783 5791 5793 5796 5800 5803 5805 5808 5811 5813 5815 5816
5782 5782 5780 5780 5780 5780 5780 5779 5778 5777 5776 5775 5774 5773 5770 5769 5767 5768 5767 5766 5766 5765 5766 5765 5765 5765 5765 5764 5769 5774 5777 5779 5787 5790 5793 5797 5799 5802 5805 5807 5810 5811 5812
5776 5774 5774 5774 5773 5773 5774 5774 5773 5773 5772 5770 5769 5768 5767 5765 5763 5763 5762 5762 5762 5761 5761 5760 5761 5760 5763 5764 5766 5771 5773 5776 5782 5786 5790 5793 5796 5799 5801 5804 5806 5807 5807
5769 5767 5768 5767 5767 5767 5767 5769 5768 5768 5767 5766 5765 5764 5763 5761 5760 5759 5758 5756 5755 5755 5755 5754 5754 5755 5759 5754 5765 5768 5769 5773 5778 5783 5786 5789 5792 5794 5797 5800 5802 5803 5805
5762 5760 5760 5761 5761 5760 5761 5763 5763 5762 5761 5760 5760 5759 5758 5757 5755 5754 5753 5751 5749 5748 5748 5748 5746 5749 5754 5756 5760 5763 5766 5770 5774 5780 5783 5786 5788 5791 5793 5795 5798 5800 5802
5753 5753 5753 5754 5754 5753 5754 5757 5757 5756 5756 5755 5755 5754 5753 5752 5749 5748 5746 5745 5743 5741 5741 5740 5739 5743 5749 5753 5756 5759 5763 5766 5771 5775 5779 5781 5784 5787 5789 5791 5794 5796 5797
5743 5746 5746 5747 5747 5748 5748 5750 5751 5751 5750 5749 5749 5749 5748 5747 5745 5742 5741 5739 5737 5735 5735 5733 5733 5738 5742 5747 5751 5755 5760 5763 5767 5772 5775 5778 5780 5783 5785 5787 5790 5792 5794
5731 5734 5739 5740 5743 5742 5741 5743 5744 5745 5745 5744 5743 5743 5742 5742 5740 5736 5735 5734 5732 5730 5729 5726 5727 5732 5736 5741 5745 5749 5752 5758 5764 5768 5771 5773 5776 5778 5780 5783 5785 5786 5788
5721 5724 5728 5732 5734 5735 5735 5736 5737 5738 5738 5738 5738 5737 5737 5736 5734 5731 5731 5729 5727 5726 5724 5721 5721 5725 5729 5735 5740 5745 5749 5757 5759 5764 5767 5768 5771 5772 5775 5777 5778 5780 5782
5711 5714 5715 5719 5724 5726 5727 5728 5728 5732 5733 5732 5732 5731 5731 5731 5730 5727 5726 5724 5722 5721 5720 5720 5717 5721 5726 5730 5736 5741 5746 5750 5753 5757 5760 5761 5764 5767 5768 5770 5773 5774 5776
5702 5704 5707 5709 5714 5716 5719 5720 5721 5725 5726 5726 5727 5726 5726 5727 5725 5723 5722 5721 5719 5718 5717 5716 5714 5717 5721 5727 5732 5736 5739 5744 5746 5750 5753 5754 5757 5760 5763 5765 5766 5768 5769
5692 5694 5697 5699 5703 5706 5711 5712 5713 5718 5719 5720 5721 5721 5721 5722 5720 5718 5718 5717 5715 5714 5714 5714 5714 5715 5718 5723 5726 5730 5733 5737 5739 5743 5745 5748 5751 5754 5755 5757 5759 5760 5762
5682 5684 5686 5689 5694 5697 5702 5704 5706 5711 5712 5714 5715 5715 5717 5717 5716 5714 5714 5713 5712 5710 5710 5710 5710 5714 5717 5719 5723 5726 5729 5731 5734 5736 5738 5742 5745 5748 5748 5750 5750 5752 5753
Wind_Speed
13 14 14 14 15 17 18 18 18 18 17 17 19 19 20 21 21 22 22 23 25 26 25 26 26 24 22 21 21 21 22 21 20 18 17 16 15 13 13 12 11 12 12
12 13 14 14 15 16 18 19 19 20 20 20 21 22 21 21 20 21 22 22 23 25 25 23 25 26 24 21 21 22 22 22 21 19 18 17 15 12 12 12 12 12 11
13 13 15 15 16 16 17 19 21 22 22 22 22 20 21 19 18 20 20 18 18 20 24 24 22 24 23 23 23 23 23 23 22 20 19 17 16 15 13 15 15 13 12
15 14 15 17 17 17 18 20 20 20 21 22 22 21 19 19 18 18 17 19 18 18 18 20 20 21 23 24 25 25 25 25 23 21 21 19 17 17 16 16 15 14 12
15 16 14 16 17 19 20 20 20 21 21 21 21 21 18 19 17 15 16 19 20 20 20 18 18 20 22 24 25 26 26 26 25 24 21 18 18 18 17 16 17 16 13
18 17 16 17 17 18 20 21 22 23 23 21 20 20 20 18 15 16 14 20 18 23 20 21 21 17 18 23 26 27 28 28 27 25 21 18 17 16 16 17 18 17 15
20 18 17 19 18 18 20 21 24 23 23 21 20 21 19 14 16 15 16 6 16 21 21 26 27 20 19 23 28 30 31 30 29 26 24 17 17 16 16 20 20 19 16
21 20 17 19 19 20 20 21 23 24 23 21 20 19 17 19 19 19 12 19 19 20 25 29 28 20 27 25 27 32 32 32 32 28 22 21 19 19 22 21 21 19 18
24 24 19 20 19 20 21 21 22 24 23 22 22 20 19 19 20 21 16 17 20 21 21 14 20 26 24 28 28 33 32 32 33 31 24 25 23 24 24 23 22 22 19
24 26 24 21 20 19 21 21 21 23 24 23 24 22 21 20 20 19 15 17 21 22 21 24 22 18 16 24 27 36 35 36 33 35 25 27 24 25 23 22 23 22 24
25 27 27 25 22 19 20 21 21 22 23 25 25 23 23 21 21 20 19 19 21 23 20 22 22 17 17 22 25 31 39 38 34 32 28 30 26 24 24 23 22 25 26
26 27 28 29 25 21 19 21 22 22 23 26 26 24 23 23 23 23 22 21 21 22 21 20 20 22 19 22 24 35 40 36 38 30 28 33 26 25 24 24 24 24 20
26 28 31 31 29 23 18 21 22 22 23 26 26 25 22 22 23 24 25 24 24 22 22 21 22 24 23 24 21 30 35 37 35 31 28 27 28 25 24 23 22 23 25
28 30 34 33 31 26 21 22 23 23 23 26 27 25 23 23 23 21 23 25 24 24 23 23 25 26 25 26 25 28 26 36 32 33 31 28 30 26 25 24 23 25 24
28 32 36 35 33 29 26 21 23 23 23 27 27 25 24 23 22 21 21 22 23 24 25 25 26 28 25 27 31 25 25 31 33 33 32 29 29 28 26 24 24 25 27
30 35 36 36 36 33 30 23 24 23 23 26 26 25 24 23 22 19 23 24 25 24 26 28 25 31 22 26 31 26 27 30 32 33 31 33 28 25 24 24 24 25 24
33 36 36 37 37 37 34 26 25 23 23 27 26 26 23 22 20 19 23 26 28 27 27 28 29 30 23 30 30 30 30 28 30 31 32 32 31 24 23 25 25 23 22
35 38 39 39 39 40 37 31 27 25 24 26 26 25 23 22 21 21 23 25 27 26 28 26 31 31 30 33 33 34 31 31 31 31 31 30 28 24 24 26 25 22 26
40 40 41 40 39 41 40 35 29 27 26 26 25 25 23 24 22 22 23 23 24 26 27 27 31 36 34 33 36 38 33 31 32 35 31 30 29 27 26 24 25 27 27
43 41 40 42 42 42 43 39 33 30 27 26 25 25 24 25 24 24 23 23 22 25 24 30 31 39 39 38 44 39 35 31 34 32 31 31 29 26 27 25 24 26 29
46 43 40 42 41 44 45 43 37 32 28 27 25 26 26 26 26 25 23 22 21 23 24 27 34 42 37 33 45 35 40 38 34 30 31 30 29 28 28 28 31 30 33
47 45 42 40 41 44 46 46 42 36 28 28 26 26 27 26 27 22 22 20 19 21 22 23 28 43 37 47 36 36 42 31 35 33 33 34 33 31 30 29 29 29 32
47 48 46 43 40 42 43 47 47 40 30 27 26 25 27 26 26 21 21 19 19 18 20 21 24 36 39 42 38 41 44 42 34 32 33 32 35 34 33 30 30 31 33
49 48 46 47 41 42 41 45 47 42 33 28 26 26 28 27 26 21 20 18 18 16 17 16 8 34 31 33 37 39 36 34 31 34 34 37 33 34 31 31 32 34 35
45 45 43 45 43 43 40 44 47 40 35 28 26 26 27 26 26 20 20 18 17 16 16 18 13 9 23 32 33 32 36 39 38 38 37 31 27 27 28 31 32 34 36
43 43 42 42 42 42 40 44 46 38 38 28 27 25 26 26 25 21 19 18 19 17 16 16 15 15 11 10 20 25 24 30 31 32 25 21 22 25 29 30 31 33 36
Wind_Direction
327 330 333 328 305 291 292 293 295 296 298 299 302 299 299 290 278 273 269 265 257 250 243 239 237 229 227 226 227 225 224 223 228 233 236 239 241 243 242 243 247 248 253
328 326 334 333 310 298 299 302 301 299 302 301 297 295 301 294 282 274 267 266 263 259 255 250 242 237 230 221 222 222 222 221 224 229 232 236 233 237 234 233 241 241 244
318 330 339 336 324 315 307 305 304 301 304 301 296 291 295 288 279 272 267 269 271 271 263 255 250 244 233 226 221 222 222 221 220 224 226 229 227 231 233 226 231 227 231
317 327 334 332 327 321 314 309 308 304 301 303 298 294 292 287 276 274 280 271 269 268 266 257 243 235 229 224 220 218 217 217 219 221 226 227 224 227 232 230 228 225 225
311 320 328 324 323 320 318 311 309 308 302 301 299 294 291 287 281 282 279 268 263 269 265 263 253 238 228 223 220 217 215 216 216 220 228 228 225 227 229 222 220 217 227
304 313 317 314 315 316 316 313 310 308 302 301 299 295 294 294 286 278 262 270 254 262 251 255 249 236 236 229 222 219 216 217 217 219 225 224 221 218 218 216 220 217 231
299 307 311 307 309 312 311 314 315 312 305 300 303 296 296 295 288 278 291 244 257 266 280 266 263 240 235 229 225 220 218 218 216 217 220 217 218 213 219 223 223 220 227
293 300 305 300 304 307 310 314 314 313 309 304 304 303 295 285 275 277 266 273 264 277 288 270 248 246 243 236 227 223 222 219 217 218 213 214 214 215 227 226 225 224 225
291 296 295 294 297 302 308 311 313 310 308 304 303 302 299 290 274 278 276 272 276 278 274 263 238 269 246 230 231 228 224 221 217 219 208 215 211 221 228 231 226 229 227
285 292 293 289 292 296 302 308 311 308 307 304 302 299 296 290 277 269 269 269 270 273 269 262 258 259 253 242 243 226 223 226 221 220 209 215 215 222 228 232 235 236 234
278 286 288 288 289 291 299 305 307 306 303 300 300 299 298 292 274 266 264 263 269 269 268 269 259 256 241 248 243 236 217 224 218 222 216 216 216 222 227 232 236 236 240
271 279 280 285 286 287 295 301 303 305 301 295 295 295 296 289 277 272 265 262 267 272 269 272 259 256 250 254 246 226 220 218 228 219 223 223 215 221 227 231 237 248 252
268 272 275 278 280 283 290 296 300 302 299 291 291 290 290 284 278 272 268 267 270 272 266 269 254 249 249 264 243 219 215 215 225 217 218 221 223 223 228 238 247 252 267
263 265 269 272 277 282 287 292 297 301 299 293 290 289 287 280 274 276 274 273 270 271 268 264 253 248 249 262 207 204 222 218 219 217 226 215 218 223 227 238 247 255 272
259 260 264 270 275 279 283 286 290 295 295 294 292 289 284 278 276 279 280 278 275 270 273 263 256 250 258 211 199 216 226 225 219 222 223 220 220 225 231 240 246 266 276
254 257 260 266 271 274 277 281 285 290 294 293 292 288 280 275 277 281 280 280 276 271 267 263 268 249 232 204 199 220 228 229 220 226 237 224 222 227 233 241 255 265 246
254 255 257 258 266 270 273 277 279 284 290 291 290 288 279 275 275 283 284 282 275 273 269 261 274 240 232 193 212 220 228 226 218 227 227 218 225 229 236 244 258 261 233
255 254 257 254 260 266 270 274 275 279 282 286 287 286 277 276 279 284 289 283 272 267 267 265 272 229 222 203 208 224 227 227 223 223 225 224 229 234 243 249 250 241 240
261 256 257 254 257 262 266 270 271 274 277 284 286 285 276 277 282 287 295 284 275 266 266 279 255 213 221 215 210 223 227 225 225 232 230 230 230 237 243 252 256 248 240
263 259 258 255 255 262 265 267 268 268 271 279 283 282 273 278 282 288 292 285 277 272 254 290 226 209 220 213 210 224 229 225 228 234 233 236 240 246 255 265 259 255 242
262 259 254 255 257 261 264 267 267 264 268 275 280 279 271 277 281 285 290 284 278 272 253 292 215 211 214 215 213 231 228 226 229 235 240 238 241 253 257 258 255 251 247
261 263 260 256 254 258 262 267 268 263 263 269 276 278 272 277 282 279 288 286 280 270 255 306 213 211 213 221 227 234 224 228 231 235 244 242 246 251 258 261 254 250 249
263 263 263 258 251 253 256 262 267 266 261 265 273 274 270 276 280 276 282 286 281 265 253 285 222 208 220 217 228 235 230 231 226 232 237 244 246 248 255 255 256 255 258
260 261 262 262 256 249 251 256 260 265 258 263 271 270 269 273 281 273 274 278 282 257 250 253 258 207 218 221 222 226 229 232 235 235 239 252 246 248 252 253 260 263 266
256 258 256 257 256 250 250 252 256 259 257 260 267 269 266 271 278 273 273 276 278 268 247 246 267 236 222 231 222 226 226 238 243 246 244 238 239 242 249 259 263 268 271
251 251 252 252 252 251 250 251 253 254 254 257 264 269 262 268 276 271 271 272 271 275 268 251 233 232 281 285 235 236 245 241 239 235 234 249 254 258 261 261 264 269 272